This is the latest recevied weather packets stored in our database for station/object NK7E-2. If no packets are shown the sender has not sent any weather packets the latest 10 day(s).
| Time | Temp. | Humidity | Pressure | Rain* | Wind** | Luminosity | Snow |
|---|---|---|---|---|---|---|---|
| 1777815917 | 18.89° C | 42% | 1023.3 hPa | 0 mm | - | - | - |
| 1777815317 | 18.89° C | 42% | 1023 hPa | 0 mm | - | - | - |
| 1777814717 | 18.89° C | 42% | 1022.9 hPa | 0 mm | - | - | - |
| 1777814117 | 18.89° C | 42% | 1023 hPa | 0 mm | - | - | - |
| 1777813517 | 18.33° C | 43% | 1022.6 hPa | 0 mm | - | - | - |
| 1777812917 | 18.33° C | 42% | 1022.4 hPa | 0 mm | - | - | - |
| 1777812317 | 18.33° C | 43% | 1022.2 hPa | 0 mm | - | - | - |
| 1777811717 | 17.78° C | 44% | 1022.5 hPa | 0 mm | - | - | - |
| 1777811117 | 17.78° C | 44% | 1022.7 hPa | 0 mm | - | - | - |
| 1777810517 | 18.33° C | 43% | 1022.7 hPa | 0 mm | - | - | - |
| 1777809917 | 18.33° C | 43% | 1022.5 hPa | 0 mm | - | - | - |
| 1777809317 | 18.33° C | 43% | 1022.5 hPa | 0 mm | - | - | - |
| 1777808717 | 18.33° C | 43% | 1022.7 hPa | 0 mm | - | - | - |
| 1777808117 | 18.33° C | 42% | 1022.7 hPa | 0 mm | - | - | - |
| 1777807517 | 18.89° C | 41% | 1023.1 hPa | 0 mm | - | - | - |
| 1777806916 | 19.44° C | 40% | 1023 hPa | 0 mm | - | - | - |
| 1777806316 | 20° C | 40% | 1023.1 hPa | 0 mm | - | - | - |
| 1777805716 | 19.44° C | 41% | 1023 hPa | 0 mm | - | - | - |
| 1777805116 | 19.44° C | 40% | 1023.2 hPa | 0 mm | - | - | - |
| 1777804517 | 20° C | 40% | 1023.3 hPa | 0 mm | - | - | - |
| 1777803917 | 18.89° C | 42% | 1023 hPa | 0 mm | - | - | - |
| 1777803316 | 18.89° C | 41% | 1023.3 hPa | 0 mm | - | - | - |
| 1777802716 | 18.89° C | 41% | 1023.1 hPa | 0 mm | - | - | - |
| 1777802116 | 19.44° C | 40% | 1023.3 hPa | 0 mm | - | - | - |
| 1777801516 | 20° C | 39% | 1023.5 hPa | 0 mm | - | - | - |
* Rain latest hour (hover to see other rain measurements)
** Current wind speed in m/s (hover to see current wind gust speed)